| time (UTC) | temp F | wind direction | speed knots | gust knots | rain 1hr in | rain 24hr in | rain mn in | humidity % | barometer mb |
| 20260904175502 | 79 | 290 | 0.9 | 0.9 | 0.00 | 0.00 | 0.00 | 52 | 965.8 |
| 20260904175038 | 79 | 290 | 0.9 | 2.6 | 0.00 | 0.00 | 0.00 | 49 | 965.8 |
| 20260904174558 | 79 | 290 | 3.5 | 6.1 | 0.00 | 0.00 | 0.00 | 49 | 965.8 |
| 20260904174118 | 79 | 290 | 4.3 | 6.1 | 0.00 | 0.00 | 0.00 | 49 | 965.6 |
| 20260904173653 | 79 | 290 | 0.0 | 6.1 | 0.00 | 0.00 | 0.00 | 49 | 965.9 |
| 20260904173233 | 79 | 290 | 0.0 | 4.3 | 0.00 | 0.00 | 0.00 | 49 | 965.8 |
| 20260904172813 | 79 | 166 | 4.3 | 11.3 | 0.00 | 0.00 | 0.00 | 49 | 966.0 |
| 20260904172333 | 79 | 166 | 3.5 | 11.3 | 0.00 | 0.00 | 0.00 | 49 | 965.9 |
| 20260904171908 | 79 | 166 | 3.5 | 7.8 | 0.00 | 0.00 | 0.00 | 49 | 965.8 |
| 20260904171443 | 79 | 253 | 2.6 | 9.6 | 0.00 | 0.00 | 0.00 | 45 | 966.0 |
| 20260904171028 | 80 | 253 | 2.6 | 9.6 | 0.00 | 0.00 | 0.00 | 45 | 966.1 |
| 20260904170553 | 80 | 274 | 2.6 | 15.6 | 0.00 | 0.00 | 0.00 | 45 | 965.9 |
| 20260904170108 | 80 | 337 | 6.1 | 6.1 | 0.00 | 0.00 | 0.00 | 45 | 966.1 |
| 20260904165639 | 80 | 334 | 0.9 | 6.1 | 0.00 | 0.00 | 0.00 | 45 | 966.2 |
| 20260904165158 | 80 | 257 | 1.7 | 7.8 | 0.00 | 0.00 | 0.00 | 45 | 966.0 |
| 20260904164723 | 80 | 257 | 6.1 | 7.8 | 0.00 | 0.00 | 0.00 | 45 | 966.1 |
| 20260904164253 | 80 | 301 | 6.1 | 6.1 | 0.00 | 0.00 | 0.00 | 45 | 966.4 |
| 20260904163809 | 80 | 301 | 4.3 | 12.2 | 0.00 | 0.00 | 0.00 | 45 | 966.3 |
| 20260904163327 | 80 | 301 | 4.3 | 7.8 | 0.00 | 0.00 | 0.00 | 45 | 966.2 |
| 20260904162838 | 80 | 301 | 1.7 | 12.2 | 0.00 | 0.00 | 0.00 | 45 | 966.2 |
| 20260904162353 | 80 | 301 | 1.7 | 12.2 | 0.00 | 0.00 | 0.00 | 45 | 966.3 |
| 20260904161928 | 82 | 292 | 1.7 | 17.4 | 0.00 | 0.00 | 0.00 | 45 | 966.4 |
| 20260904161453 | 82 | 333 | 1.7 | 12.2 | 0.00 | 0.00 | 0.00 | 45 | 965.9 |
| 20260904161038 | 82 | 333 | 3.5 | 12.2 | 0.00 | 0.00 | 0.00 | 45 | 966.3 |
| 20260904160543 | 82 | 137 | 3.5 | 7.8 | 0.00 | 0.00 | 0.00 | 45 | 966.1 |
| 20260904160113 | 82 | 117 | 3.5 | 13.9 | 0.00 | 0.00 | 0.00 | 45 | 966.1 |
| 20260904155633 | 82 | 117 | 15.6 | 21.7 | 0.00 | 0.00 | 0.00 | 45 | 966.1 |
| 20260904155158 | 82 | 316 | 7.0 | 11.3 | 0.00 | 0.00 | 0.00 | 45 | 966.1 |
| 20260904154711 | 82 | 350 | 5.2 | 7.8 | 0.00 | 0.00 | 0.00 | 43 | 966.1 |
| 20260904154228 | 82 | 292 | 5.2 | 19.1 | 0.00 | 0.00 | 0.00 | 43 | 965.9 |
| 20260904153813 | 82 | 281 | 3.5 | 12.2 | 0.00 | 0.00 | 0.00 | 43 | 966.0 |
| 20260904153323 | 82 | 281 | 11.3 | 19.1 | 0.00 | 0.00 | 0.00 | 44 | 965.9 |
| 20260904152824 | 82 | 84 | 7.0 | 19.1 | 0.00 | 0.00 | 0.00 | 44 | 966.0 |
| 20260904152418 | 81 | 84 | 10.4 | 9.6 | 0.00 | 0.00 | 0.00 | 44 | 966.1 |
| 20260904151953 | 81 | 7 | 9.6 | 11.3 | 0.00 | 0.00 | 0.00 | 44 | 965.8 |
| 20260904151513 | 81 | 337 | 6.1 | 21.7 | 0.00 | 0.00 | 0.00 | 44 | 965.7 |
| 20260904151103 | 81 | 161 | 9.6 | 13.9 | 0.00 | 0.00 | 0.00 | 44 | 966.1 |
| 20260904150633 | 81 | 351 | 6.1 | 13.9 | 0.00 | 0.00 | 0.00 | 44 | 966.0 |
| 20260904150218 | 83 | 241 | 7.0 | 11.3 | 0.00 | 0.00 | 0.00 | 44 | 966.0 |
| 20260904145738 | 82 | 241 | 6.1 | 7.8 | 0.00 | 0.00 | 0.00 | 44 | 966.1 |
| 20260904145309 | 82 | 2 | 6.1 | 23.5 | 0.00 | 0.00 | 0.00 | 44 | 965.9 |
| 20260904144843 | 82 | 186 | 2.6 | 9.6 | 0.00 | 0.00 | 0.00 | 44 | 966.0 |
| 20260904144411 | 82 | 103 | 7.0 | 17.4 | 0.00 | 0.00 | 0.00 | 44 | 966.2 |
| 20260904143928 | 82 | 56 | 12.2 | 6.1 | 0.00 | 0.00 | 0.00 | 44 | 966.2 |
| 20260904143448 | 82 | 314 | 7.8 | 6.1 | 0.00 | 0.00 | 0.00 | 44 | 966.2 |
| 20260904142958 | 82 | 326 | 4.3 | 6.1 | 0.00 | 0.00 | 0.00 | 44 | 966.3 |
| 20260904142528 | 81 | 326 | 3.5 | 21.7 | 0.00 | 0.00 | 0.00 | 44 | 966.5 |
| 20260904142113 | 81 | 313 | 4.3 | 19.1 | 0.00 | 0.00 | 0.00 | 44 | 966.5 |
| 20260904141648 | 81 | 139 | 4.3 | 21.7 | 0.00 | 0.00 | 0.00 | 44 | 966.5 |
| 20260904141208 | 81 | 139 | 0.9 | 12.2 | 0.00 | 0.00 | 0.00 | 45 | 966.6 |
| 20260904140738 | 81 | 304 | 13.9 | 7.8 | 0.00 | 0.00 | 0.00 | 49 | 966.7 |
| 20260904140313 | 81 | 182 | 13.9 | 13.9 | 0.00 | 0.00 | 0.00 | 49 | 966.7 |
| 20260904135828 | 81 | 302 | 13.9 | 13.9 | 0.00 | 0.00 | 0.00 | 49 | 966.9 |
| 20260904135353 | 82 | 68 | 3.5 | 7.8 | 0.00 | 0.00 | 0.00 | 49 | 967.0 |
| 20260904134933 | 82 | 187 | 0.9 | 7.8 | 0.00 | 0.00 | 0.00 | 49 | 966.9 |
| 20260904134508 | 80 | 238 | 5.2 | 28.7 | 0.00 | 0.00 | 0.00 | 49 | 966.9 |
| 20260904134108 | 80 | 238 | 8.7 | 28.7 | 0.00 | 0.00 | 0.00 | 49 | 967.2 |
| 20260904133623 | 79 | 175 | 8.7 | 15.6 | 0.00 | 0.00 | 0.00 | 49 | 967.1 |
| 20260904133203 | 80 | 305 | 4.3 | 15.6 | 0.00 | 0.00 | 0.00 | 47 | 967.0 |
| 20260904132733 | 80 | 105 | 6.1 | 15.6 | 0.00 | 0.00 | 0.00 | 47 | 967.1 |
| 20260904132258 | 81 | 340 | 4.3 | 13.9 | 0.00 | 0.00 | 0.00 | 48 | 967.1 |
| 20260904131759 | 81 | 182 | 6.1 | 12.2 | 0.00 | 0.00 | 0.00 | 47 | 967.2 |
| 20260904131333 | 80 | 332 | 6.1 | 17.4 | 0.00 | 0.00 | 0.00 | 47 | 967.2 |
| 20260904130853 | 80 | 303 | 3.5 | 17.4 | 0.00 | 0.00 | 0.00 | 47 | 967.1 |
| 20260904130443 | 80 | 231 | 4.3 | 12.2 | 0.00 | 0.00 | 0.00 | 47 | 967.2 |
| 20260904130028 | 79 | 234 | 7.8 | 21.7 | 0.00 | 0.00 | 0.00 | 48 | 967.4 |
| 20260904125608 | 79 | 291 | 12.2 | 13.9 | 0.00 | 0.00 | 0.00 | 49 | 967.4 |
| 20260904125133 | 80 | 344 | 12.2 | 23.5 | 0.00 | 0.00 | 0.00 | 50 | 967.5 |
| 20260904124639 | 80 | 308 | 12.2 | 19.1 | 0.00 | 0.00 | 0.00 | 50 | 967.7 |
| 20260904124218 | 79 | 319 | 6.1 | 12.2 | 0.00 | 0.00 | 0.00 | 50 | 967.6 |
| 20260904123743 | 79 | 110 | 6.1 | 19.1 | 0.00 | 0.00 | 0.00 | 50 | 968.0 |
| 20260904123318 | 78 | 110 | 9.6 | 25.2 | 0.00 | 0.00 | 0.00 | 50 | 968.1 |
| 20260904122858 | 78 | 318 | 9.6 | 13.9 | 0.00 | 0.00 | 0.00 | 50 | 968.2 |
| 20260904122428 | 80 | 322 | 9.6 | 17.4 | 0.00 | 0.00 | 0.00 | 50 | 968.5 |
| 20260904121953 | 78 | 317 | 3.5 | 4.3 | 0.00 | 0.00 | 0.00 | 50 | 968.3 |
| 20260904121525 | 78 | 331 | 3.5 | 15.6 | 0.00 | 0.00 | 0.00 | 50 | 968.5 |
| 20260904121118 | 78 | 331 | 3.5 | 13.9 | 0.00 | 0.00 | 0.00 | 52 | 968.5 |
| 20260904120638 | 77 | 304 | 5.2 | 4.3 | 0.00 | 0.00 | 0.00 | 52 | 968.5 |
| 20260904120148 | 78 | 125 | 5.2 | 21.7 | 0.00 | 0.00 | 0.00 | 52 | 968.7 |
| 20260904115728 | 78 | 125 | 5.2 | 17.4 | 0.00 | 0.00 | 0.00 | 55 | 968.6 |
| 20260904115308 | 77 | 257 | 7.8 | 20.0 | 0.00 | 0.00 | 0.00 | 55 | 968.6 |
| 20260904114903 | 77 | 257 | 6.1 | 11.3 | 0.00 | 0.00 | 0.00 | 55 | 968.6 |
| 20260904114413 | 78 | 257 | 8.7 | 12.2 | 0.00 | 0.00 | 0.00 | 55 | 968.9 |
| 20260904113958 | 78 | 257 | 7.8 | 26.9 | 0.00 | 0.00 | 0.00 | 55 | 968.8 |
| 20260904113533 | 76 | 283 | 7.8 | 7.8 | 0.00 | 0.00 | 0.00 | 55 | 968.9 |
| 20260904113038 | 76 | 251 | 7.8 | 19.1 | 0.00 | 0.00 | 0.00 | 55 | 968.9 |
| 20260904112619 | 76 | 288 | 12.2 | 26.9 | 0.00 | 0.00 | 0.00 | 58 | 968.8 |
| 20260904112158 | 76 | 327 | 4.3 | 12.2 | 0.00 | 0.00 | 0.00 | 58 | 968.9 |
| 20260904111718 | 77 | 343 | 4.3 | 17.4 | 0.00 | 0.00 | 0.00 | 58 | 968.9 |
| 20260904111243 | 76 | 343 | 4.3 | 2.6 | 0.00 | 0.00 | 0.00 | 58 | 969.0 |
| 20260904110758 | 76 | 343 | 7.8 | 11.3 | 0.00 | 0.00 | 0.00 | 58 | 969.2 |
| 20260904110333 | 76 | 178 | 7.8 | 7.8 | 0.00 | 0.00 | 0.00 | 58 | 969.2 |
| 20260904105848 | 75 | 95 | 4.3 | 13.9 | 0.00 | 0.00 | 0.00 | 58 | 969.2 |
| 20260904105413 | 75 | 111 | 12.2 | 9.6 | 0.00 | 0.00 | 0.00 | 58 | 969.1 |
| 20260904104933 | 76 | 111 | 2.6 | 9.6 | 0.00 | 0.00 | 0.00 | 58 | 969.2 |
| 20260904104518 | 76 | 127 | 7.8 | 21.7 | 0.00 | 0.00 | 0.00 | 58 | 969.3 |
| 20260904104033 | 76 | 197 | 7.8 | 9.6 | 0.00 | 0.00 | 0.00 | 58 | 969.3 |
| 20260904103628 | 76 | 146 | 7.8 | 12.2 | 0.00 | 0.00 | 0.00 | 62 | 969.1 |
| 20260904103153 | 75 | 146 | 2.6 | 9.6 | 0.00 | 0.00 | 0.00 | 62 | 969.2 |
| 20260904102728 | 74 | 343 | 2.6 | 12.2 | 0.00 | 0.00 | 0.00 | 62 | 969.6 |
| 20260904102253 | 74 | 343 | 4.3 | 15.6 | 0.00 | 0.00 | 0.00 | 62 | 969.6 |
| 20260904101823 | 74 | 337 | 8.7 | 12.2 | 0.00 | 0.00 | 0.00 | 62 | 969.5 |
| 20260904101343 | 74 | 156 | 6.1 | 19.1 | 0.00 | 0.00 | 0.00 | 63 | 969.7 |
| 20260904100923 | 72 | 137 | 4.3 | 19.1 | 0.00 | 0.00 | 0.00 | 63 | 969.8 |
| 20260904100458 | 72 | 175 | 5.2 | 15.6 | 0.00 | 0.00 | 0.00 | 66 | 969.8 |
| 20260904100028 | 72 | 315 | 4.3 | 17.4 | 0.00 | 0.00 | 0.00 | 66 | 970.1 |
| 20260904095548 | 73 | 308 | 6.1 | 12.2 | 0.00 | 0.00 | 0.00 | 66 | 970.1 |
| 20260904095113 | 73 | 308 | 8.7 | 13.9 | 0.00 | 0.00 | 0.00 | 67 | 970.1 |
| 20260904094643 | 73 | 330 | 5.2 | 19.1 | 0.00 | 0.00 | 0.00 | 67 | 970.2 |
| 20260904094208 | 74 | 330 | 3.5 | 7.8 | 0.00 | 0.00 | 0.00 | 67 | 970.0 |
| 20260904093733 | 71 | 330 | 3.5 | 11.3 | 0.00 | 0.00 | 0.00 | 67 | 970.5 |
| 20260904093303 | 71 | 39 | 7.8 | 20.0 | 0.00 | 0.00 | 0.00 | 67 | 970.3 |
| 20260904092838 | 71 | 292 | 7.8 | 17.4 | 0.00 | 0.00 | 0.00 | 67 | 970.5 |
| 20260904092353 | 72 | 292 | 7.8 | 17.4 | 0.00 | 0.00 | 0.00 | 67 | 970.5 |
| 20260904091933 | 72 | 292 | 4.3 | 19.1 | 0.00 | 0.00 | 0.00 | 69 | 970.5 |
| 20260904091523 | 69 | 147 | 4.3 | 12.2 | 0.00 | 0.00 | 0.00 | 69 | 970.6 |
| 20260904091103 | 69 | 318 | 1.7 | 15.6 | 0.00 | 0.00 | 0.00 | 69 | 970.8 |
| 20260904090633 | 69 | 351 | 7.8 | 9.6 | 0.00 | 0.00 | 0.00 | 75 | 970.8 |
| 20260904090208 | 69 | 10 | 7.8 | 13.9 | 0.00 | 0.00 | 0.00 | 75 | 970.7 |
| 20260904085713 | 69 | 249 | 3.5 | 7.8 | 0.00 | 0.00 | 0.00 | 75 | 970.8 |
| 20260904085308 | 69 | 161 | 1.7 | 7.8 | 0.00 | 0.00 | 0.00 | 75 | 970.7 |
| 20260904084843 | 68 | 161 | 4.3 | 7.8 | 0.00 | 0.00 | 0.00 | 75 | 970.9 |
| 20260904084358 | 68 | 198 | 2.6 | 2.6 | 0.00 | 0.00 | 0.00 | 75 | 970.9 |
| 20260904083948 | 68 | 143 | 1.7 | 12.2 | 0.00 | 0.00 | 0.00 | 75 | 971.1 |
| 20260904083528 | 68 | 175 | 1.7 | 4.3 | 0.00 | 0.00 | 0.00 | 75 | 971.0 |
| 20260904083058 | 67 | 175 | 1.7 | 6.1 | 0.00 | 0.00 | 0.00 | 75 | 971.0 |
| 20260904082613 | 67 | 138 | 1.7 | 2.6 | 0.00 | 0.00 | 0.00 | 79 | 971.1 |
| 20260904082128 | 67 | 38 | 1.7 | 4.3 | 0.00 | 0.00 | 0.00 | 79 | 971.2 |
| 20260904081648 | 67 | 38 | 4.3 | 4.3 | 0.00 | 0.00 | 0.00 | 79 | 971.2 |
| 20260904081219 | 67 | 340 | 0.9 | 0.9 | 0.00 | 0.00 | 0.00 | 79 | 971.2 |
| 20260904080748 | 67 | 340 | 0.9 | 6.1 | 0.00 | 0.00 | 0.00 | 79 | 971.3 |
| 20260904080333 | 67 | 340 | 4.3 | 6.1 | 0.00 | 0.00 | 0.00 | 79 | 971.5 |
| 20260904075908 | 67 | 103 | 0.9 | 4.3 | 0.00 | 0.00 | 0.00 | 79 | 971.3 |
| 20260904075449 | 67 | 103 | 0.9 | 9.6 | 0.00 | 0.00 | 0.00 | 79 | 971.4 |
| 20260904075003 | 66 | 103 | 0.9 | 2.6 | 0.00 | 0.00 | 0.00 | 79 | 971.5 |
| 20260904074528 | 66 | 103 | 0.9 | 6.1 | 0.00 | 0.00 | 0.00 | 79 | 971.6 |
| 20260904074059 | 66 | 103 | 0.9 | 0.9 | 0.00 | 0.00 | 0.00 | 79 | 971.5 |
| 20260904073618 | 66 | 325 | 0.9 | 6.1 | 0.00 | 0.00 | 0.00 | 79 | 971.7 |
| 20260904073153 | 66 | 352 | 0.0 | 6.1 | 0.00 | 0.00 | 0.00 | 79 | 971.5 |
| 20260904072728 | 66 | 171 | 1.7 | 7.8 | 0.00 | 0.00 | 0.00 | 80 | 971.7 |
| 20260904072313 | 66 | 289 | 3.5 | 4.3 | 0.00 | 0.00 | 0.00 | 80 | 971.6 |
| 20260904071843 | 65 | 289 | 2.6 | 9.6 | 0.00 | 0.00 | 0.00 | 81 | 971.7 |
| 20260904071413 | 65 | 289 | 3.5 | 9.6 | 0.00 | 0.00 | 0.00 | 81 | 971.5 |
| 20260904070958 | 65 | 349 | 3.5 | 6.1 | 0.00 | 0.00 | 0.00 | 81 | 971.8 |
| 20260904070533 | 65 | 146 | 2.6 | 6.1 | 0.00 | 0.00 | 0.00 | 81 | 971.7 |
| 20260904070058 | 65 | 259 | 1.7 | 4.3 | 0.00 | 0.00 | 0.00 | 81 | 971.7 |
| 20260904065619 | 65 | 259 | 0.0 | 2.6 | 0.00 | 0.00 | 0.00 | 81 | 971.6 |
| 20260904065153 | 64 | 259 | 0.0 | 2.6 | 0.00 | 0.00 | 0.00 | 81 | 971.6 |
| 20260904064718 | 64 | 310 | 0.9 | 2.6 | 0.00 | 0.00 | 0.00 | 81 | 971.7 |
| 20260904064238 | 64 | 242 | 0.9 | 4.3 | 0.00 | 0.00 | 0.00 | 81 | 971.6 |
| 20260904063813 | 62 | 196 | 1.7 | 4.3 | 0.00 | 0.00 | 0.00 | 81 | 971.6 |
| 20260904063348 | 62 | 196 | 1.7 | 2.6 | 0.00 | 0.00 | 0.00 | 82 | 971.7 |
| 20260904062908 | 62 | 196 | 1.7 | 2.6 | 0.00 | 0.00 | 0.00 | 85 | 971.6 |
| 20260904062418 | 62 | 196 | 1.7 | 2.6 | 0.00 | 0.00 | 0.00 | 85 | 971.7 |
| 20260904061958 | 61 | 4 | 0.9 | 4.3 | 0.00 | 0.00 | 0.00 | 85 | 971.5 |
| 20260904061553 | 61 | 4 | 0.0 | 0.0 | 0.00 | 0.00 | 0.00 | 85 | 971.9 |
| 20260904061128 | 61 | 4 | 1.7 | 0.0 | 0.00 | 0.00 | 0.00 | 85 | 971.7 |
| 20260904060646 | 60 | 4 | 0.0 | 0.0 | 0.00 | 0.00 | 0.00 | 87 | 971.8 |
| 20260904060218 | 60 | 4 | 0.0 | 0.9 | 0.00 | 0.00 | 0.00 | 87 | 971.7 |
| 20260904055738 | 60 | 4 | 0.0 | 0.9 | 0.00 | 0.00 | 0.00 | 87 | 971.9 |
| 20260904055323 | 60 | 4 | 0.0 | 0.9 | 0.00 | 0.00 | 0.00 | 84 | 972.0 |
| 20260904054843 | 60 | 4 | 0.0 | 0.0 | 0.00 | 0.00 | 0.00 | 87 | 971.7 |
| 20260904054358 | 60 | 4 | 0.0 | 0.9 | 0.00 | 0.00 | 0.00 | 88 | 971.8 |
| 20260904053918 | 60 | 351 | 0.0 | 0.9 | 0.00 | 0.00 | 0.00 | 88 | 971.6 |
| 20260904053508 | 59 | 342 | 0.0 | 0.9 | 0.00 | 0.00 | 0.00 | 88 | 971.7 |
| 20260904053028 | 59 | 63 | 0.0 | 0.9 | 0.00 | 0.00 | 0.00 | 90 | 971.9 |
| 20260904052608 | 59 | 63 | 0.0 | 0.9 | 0.00 | 0.00 | 0.00 | 90 | 971.9 |
| 20260904052123 | 59 | 63 | 0.0 | 0.9 | 0.00 | 0.00 | 0.00 | 90 | 971.7 |
| 20260904051713 | 59 | 63 | 0.9 | 0.9 | 0.00 | 0.00 | 0.00 | 90 | 971.8 |
| 20260904051248 | 59 | 63 | 0.9 | 0.9 | 0.00 | 0.00 | 0.00 | 90 | 971.8 |
| 20260904050843 | 59 | 63 | 0.0 | 0.9 | 0.00 | 0.00 | 0.00 | 90 | 972.0 |
| 20260904050348 | 59 | 63 | 0.0 | 0.9 | 0.00 | 0.00 | 0.00 | 90 | 971.8 |
| 20260904045938 | 59 | 63 | 0.0 | 0.9 | 0.00 | 0.00 | 0.00 | 90 | 971.9 |
| 20260904045513 | 59 | 63 | 0.0 | 0.0 | 0.00 | 0.00 | 0.00 | 90 | 971.7 |
| 20260904045058 | 59 | 63 | 0.0 | 0.0 | 0.00 | 0.00 | 0.00 | 90 | 971.7 |
| 20260904044608 | 59 | 148 | 0.0 | 0.0 | 0.00 | 0.00 | 0.00 | 90 | 971.8 |
| 20260904044109 | 59 | 148 | 0.0 | 0.9 | 0.00 | 0.00 | 0.00 | 90 | 971.7 |
| 20260904043628 | 59 | 148 | 0.0 | 0.0 | 0.00 | 0.00 | 0.00 | 94 | 971.8 |
| 20260904043203 | 59 | 148 | 0.0 | 0.0 | 0.00 | 0.00 | 0.00 | 94 | 971.9 |
| 20260904042733 | 59 | 148 | 0.0 | 0.9 | 0.00 | 0.00 | 0.00 | 94 | 972.0 |
| 20260904042248 | 58 | 148 | 0.0 | 0.9 | 0.00 | 0.00 | 0.00 | 94 | 972.0 |
| 20260904041818 | 58 | 149 | 0.0 | 0.9 | 0.00 | 0.00 | 0.00 | 94 | 972.2 |
| 20260904041338 | 59 | 336 | 1.7 | 0.0 | 0.00 | 0.00 | 0.00 | 94 | 972.0 |
| 20260904040859 | 59 | 336 | 0.0 | 0.9 | 0.00 | 0.00 | 0.00 | 94 | 972.3 |
| 20260904040413 | 59 | 336 | 0.0 | 0.9 | 0.00 | 0.00 | 0.00 | 94 | 972.0 |
| 20260904035953 | 59 | 336 | 0.0 | 0.0 | 0.00 | 0.00 | 0.00 | 93 | 972.3 |
| 20260904035523 | 59 | 336 | 0.0 | 0.0 | 0.00 | 0.00 | 0.00 | 91 | 972.3 |
| 20260904035058 | 60 | 336 | 0.0 | 0.9 | 0.00 | 0.00 | 0.00 | 88 | 972.3 |
| 20260904034623 | 60 | 336 | 0.9 | 0.9 | 0.00 | 0.00 | 0.00 | 88 | 972.1 |
| 20260904034143 | 60 | 336 | 0.9 | 0.9 | 0.00 | 0.00 | 0.00 | 88 | 972.1 |
| 20260904033723 | 60 | 10 | 0.9 | 0.9 | 0.00 | 0.00 | 0.00 | 88 | 972.2 |
| 20260904033228 | 60 | 125 | 0.9 | 0.9 | 0.00 | 0.00 | 0.00 | 88 | 971.9 |
| 20260904032743 | 60 | 125 | 0.0 | 0.0 | 0.00 | 0.00 | 0.00 | 88 | 972.1 |
| 20260904032313 | 60 | 125 | 0.0 | 0.0 | 0.00 | 0.00 | 0.00 | 88 | 972.1 |
| 20260904031858 | 59 | 122 | 0.0 | 2.6 | 0.00 | 0.00 | 0.00 | 97 | 972.1 |
| 20260904031438 | 59 | 142 | 0.0 | 0.9 | 0.00 | 0.00 | 0.00 | 97 | 972.3 |
| 20260904031003 | 59 | 175 | 0.0 | 0.9 | 0.00 | 0.00 | 0.00 | 97 | 972.3 |
| 20260904030523 | 59 | 175 | 0.0 | 0.9 | 0.00 | 0.00 | 0.00 | 97 | 972.2 |
| 20260904030043 | 59 | 233 | 0.0 | 0.9 | 0.00 | 0.00 | 0.00 | 97 | 972.1 |
| 20260904025623 | 59 | 359 | 0.0 | 2.6 | 0.00 | 0.00 | 0.00 | 97 | 972.2 |
| 20260904025148 | 59 | 359 | 1.7 | 2.6 | 0.00 | 0.00 | 0.00 | 97 | 972.3 |
| 20260904024701 | 57 | 359 | 1.7 | 4.3 | 0.00 | 0.00 | 0.00 | 97 | 972.6 |
| 20260904024233 | 57 | 248 | 0.9 | 0.9 | 0.00 | 0.00 | 0.00 | 97 | 972.5 |
| 20260904023748 | 57 | 143 | 0.0 | 2.6 | 0.00 | 0.00 | 0.00 | 97 | 972.3 |
| 20260904023309 | 57 | 143 | 0.0 | 2.6 | 0.00 | 0.00 | 0.00 | 97 | 972.2 |
| 20260904022833 | 57 | 143 | 0.0 | 2.6 | 0.00 | 0.00 | 0.00 | 97 | 972.5 |
| 20260904022423 | 57 | 143 | 0.0 | 2.6 | 0.00 | 0.00 | 0.00 | 97 | 972.5 |
| 20260904021958 | 57 | 143 | 0.9 | 2.6 | 0.00 | 0.00 | 0.00 | 97 | 972.4 |
| 20260904021533 | 57 | 143 | 0.9 | 2.6 | 0.00 | 0.00 | 0.00 | 97 | 972.4 |
| 20260904021118 | 57 | 95 | 0.0 | 2.6 | 0.00 | 0.00 | 0.00 | 97 | 972.5 |
| 20260904020638 | 57 | 95 | 0.0 | 0.0 | 0.00 | 0.00 | 0.00 | 97 | 972.3 |
| 20260904020158 | 57 | 95 | 0.0 | 0.0 | 0.00 | 0.00 | 0.00 | 97 | 972.5 |
| 20260904015708 | 57 | 95 | 0.0 | 0.0 | 0.00 | 0.00 | 0.00 | 97 | 972.4 |
| 20260904015218 | 57 | 95 | 0.0 | 0.9 | 0.00 | 0.00 | 0.00 | 97 | 972.5 |
| 20260904014758 | 57 | 95 | 0.0 | 0.9 | 0.00 | 0.00 | 0.00 | 97 | 972.4 |
| 20260904014328 | 57 | 95 | 0.0 | 0.9 | 0.00 | 0.00 | 0.00 | 97 | 972.6 |
| 20260904013858 | 57 | 95 | 0.0 | 0.9 | 0.00 | 0.00 | 0.00 | 97 | 972.6 |
| 20260904013438 | 57 | 95 | 0.0 | 0.9 | 0.00 | 0.00 | 0.00 | 97 | 972.5 |
| 20260904013023 | 57 | 95 | 0.0 | 0.9 | 0.00 | 0.00 | 0.00 | 97 | 972.6 |
| 20260904012558 | 57 | 95 | 0.0 | 0.9 | 0.00 | 0.00 | 0.00 | 97 | 972.4 |
| 20260904012118 | 57 | 95 | 0.9 | 0.0 | 0.00 | 0.00 | 0.00 | 97 | 972.6 |
| 20260904011648 | 57 | 95 | 0.0 | 0.9 | 0.00 | 0.00 | 0.00 | 97 | 972.4 |
| 20260904011153 | 57 | 95 | 0.0 | 0.9 | 0.00 | 0.00 | 0.00 | 97 | 972.7 |
| 20260904010703 | 57 | 95 | 0.9 | 0.9 | 0.00 | 0.00 | 0.00 | 97 | 972.6 |
| 20260904010216 | 57 | 95 | 0.9 | 0.9 | 0.00 | 0.00 | 0.00 | 96 | 972.8 |
| 20260904005733 | 57 | 95 | 0.0 | 0.9 | 0.00 | 0.00 | 0.00 | 96 | 972.6 |
| 20260904005256 | 57 | 95 | 0.0 | 0.9 | 0.00 | 0.00 | 0.00 | 96 | 972.8 |
| 20260904004833 | 57 | 95 | 0.0 | 0.0 | 0.00 | 0.00 | 0.00 | 96 | 972.7 |
| 20260904004356 | 58 | 95 | 0.9 | 0.9 | 0.00 | 0.00 | 0.00 | 96 | 972.9 |
| 20260904003923 | 58 | 95 | 0.0 | 0.9 | 0.00 | 0.00 | 0.00 | 96 | 972.7 |
| 20260904003453 | 58 | 95 | 0.0 | 0.9 | 0.00 | 0.00 | 0.00 | 96 | 972.9 |
| 20260904003033 | 58 | 95 | 0.0 | 0.9 | 0.00 | 0.00 | 0.00 | 96 | 972.9 |
| 20260904002556 | 58 | 95 | 0.0 | 0.9 | 0.00 | 0.00 | 0.00 | 96 | 973.0 |
| 20260904002128 | 58 | 95 | 0.0 | 0.9 | 0.00 | 0.00 | 0.00 | 96 | 972.9 |
| 20260904001658 | 58 | 95 | 0.0 | 0.9 | 0.00 | 0.00 | 0.00 | 96 | 973.0 |
| 20260904001223 | 58 | 95 | 0.0 | 0.9 | 0.00 | 0.00 | 0.00 | 96 | 972.9 |
| 20260904000736 | 58 | 95 | 0.0 | 0.9 | 0.00 | 0.00 | 0.00 | 96 | 973.2 |
| 20260904000313 | 58 | 96 | 0.0 | 0.9 | 0.00 | 0.00 | 0.00 | 96 | 973.1 |
| 20260903235841 | 58 | 96 | 0.0 | 0.9 | 0.00 | 0.00 | 0.00 | 96 | 973.0 |
| 20260903235358 | 59 | 96 | 0.0 | 0.9 | 0.00 | 0.00 | 0.00 | 96 | 973.2 |
| 20260903234928 | 59 | 96 | 0.0 | 0.9 | 0.00 | 0.00 | 0.00 | 96 | 973.3 |
| 20260903234503 | 59 | 96 | 0.0 | 0.0 | 0.00 | 0.00 | 0.00 | 96 | 973.5 |
| 20260903234043 | 59 | 96 | 0.0 | 0.0 | 0.00 | 0.00 | 0.00 | 96 | 973.3 |
| 20260903233608 | 59 | 96 | 0.0 | 0.0 | 0.00 | 0.00 | 0.00 | 96 | 973.4 |
| 20260903233156 | 59 | 96 | 0.0 | 0.0 | 0.00 | 0.00 | 0.00 | 96 | 973.5 |
| 20260903232736 | 59 | 96 | 0.0 | 0.0 | 0.00 | 0.00 | 0.00 | 96 | 973.4 |
| 20260903232308 | 59 | 96 | 0.9 | 0.0 | 0.00 | 0.00 | 0.00 | 96 | 973.1 |
| 20260903231848 | 59 | 96 | 0.9 | 0.0 | 0.00 | 0.00 | 0.00 | 96 | 973.5 |
| 20260903231418 | 59 | 96 | 0.0 | 0.0 | 0.00 | 0.00 | 0.00 | 96 | 973.5 |
| 20260903230928 | 59 | 96 | 0.9 | 0.0 | 0.00 | 0.00 | 0.00 | 96 | 973.6 |
| 20260903230458 | 59 | 96 | 0.9 | 0.0 | 0.00 | 0.00 | 0.00 | 96 | 973.6 |
| 20260903230033 | 59 | 96 | 0.9 | 0.0 | 0.00 | 0.00 | 0.00 | 96 | 973.5 |
| 20260903225541 | 59 | 300 | 0.0 | 0.0 | 0.00 | 0.00 | 0.00 | 96 | 973.5 |
| 20260903225048 | 59 | 300 | 0.0 | 0.9 | 0.00 | 0.00 | 0.00 | 96 | 973.4 |
| 20260903224628 | 59 | 300 | 0.0 | 0.9 | 0.00 | 0.00 | 0.00 | 96 | 973.7 |
| 20260903224213 | 59 | 300 | 0.0 | 0.9 | 0.00 | 0.00 | 0.00 | 96 | 973.6 |
| 20260903223748 | 60 | 300 | 0.0 | 0.9 | 0.00 | 0.00 | 0.00 | 96 | 973.6 |
| 20260903223333 | 60 | 300 | 0.9 | 0.9 | 0.00 | 0.00 | 0.00 | 96 | 973.7 |
| 20260903222913 | 60 | 300 | 0.9 | 0.9 | 0.00 | 0.00 | 0.00 | 96 | 973.7 |
| 20260903222433 | 60 | 300 | 0.0 | 0.0 | 0.00 | 0.00 | 0.00 | 96 | 973.7 |
| 20260903221958 | 60 | 300 | 0.0 | 0.0 | 0.00 | 0.00 | 0.00 | 96 | 973.7 |
| 20260903221553 | 60 | 300 | 0.0 | 0.0 | 0.00 | 0.00 | 0.00 | 96 | 973.7 |
| 20260903221123 | 60 | 300 | 0.9 | 0.9 | 0.00 | 0.00 | 0.00 | 96 | 973.8 |
| 20260903220713 | 60 | 300 | 0.9 | 0.9 | 0.00 | 0.00 | 0.00 | 96 | 973.5 |
| 20260903220228 | 60 | 306 | 0.9 | 2.6 | 0.00 | 0.00 | 0.00 | 96 | 973.4 |
| 20260903215808 | 60 | 306 | 1.7 | 4.3 | 0.00 | 0.00 | 0.00 | 96 | 973.6 |
| 20260903215336 | 60 | 306 | 0.0 | 0.9 | 0.00 | 0.00 | 0.00 | 96 | 973.5 |
| 20260903214901 | 60 | 332 | 0.0 | 0.9 | 0.00 | 0.00 | 0.00 | 96 | 973.6 |
| 20260903214423 | 60 | 332 | 0.0 | 0.9 | 0.00 | 0.00 | 0.00 | 96 | 973.4 |
| 20260903213956 | 60 | 332 | 0.0 | 0.9 | 0.00 | 0.00 | 0.00 | 96 | 973.7 |
| 20260903213536 | 61 | 110 | 0.0 | 0.0 | 0.00 | 0.00 | 0.00 | 96 | 973.6 |
| 20260903213116 | 61 | 106 | 0.0 | 0.0 | 0.00 | 0.00 | 0.00 | 96 | 973.7 |
| 20260903212633 | 61 | 106 | 0.0 | 0.0 | 0.00 | 0.00 | 0.00 | 96 | 973.6 |
| 20260903212153 | 61 | 106 | 0.0 | 0.0 | 0.00 | 0.00 | 0.00 | 96 | 973.5 |
| 20260903211718 | 61 | 106 | 0.0 | 0.0 | 0.00 | 0.00 | 0.00 | 96 | 973.5 |
| 20260903211248 | 61 | 106 | 0.0 | 0.0 | 0.00 | 0.00 | 0.00 | 96 | 973.7 |
| 20260903210756 | 61 | 106 | 0.0 | 0.0 | 0.00 | 0.00 | 0.00 | 96 | 973.7 |
| 20260903210323 | 61 | 106 | 0.0 | 0.0 | 0.00 | 0.00 | 0.00 | 96 | 973.8 |
| 20260903205843 | 61 | 106 | 0.9 | 0.0 | 0.00 | 0.00 | 0.00 | 96 | 973.8 |
| 20260903205408 | 61 | 106 | 0.0 | 0.0 | 0.00 | 0.00 | 0.00 | 96 | 973.8 |
| 20260903204936 | 61 | 106 | 0.0 | 0.0 | 0.00 | 0.00 | 0.00 | 94 | 974.0 |
| 20260903204453 | 61 | 106 | 0.0 | 0.9 | 0.00 | 0.00 | 0.00 | 94 | 974.0 |
| 20260903204019 | 61 | 106 | 0.0 | 0.9 | 0.00 | 0.00 | 0.00 | 94 | 973.8 |
| 20260903203616 | 61 | 106 | 0.9 | 0.9 | 0.00 | 0.00 | 0.00 | 94 | 973.7 |
| 20260903203128 | 61 | 106 | 0.9 | 0.9 | 0.00 | 0.00 | 0.00 | 94 | 973.7 |
| 20260903202713 | 61 | 106 | 0.0 | 0.9 | 0.00 | 0.00 | 0.00 | 94 | 973.8 |
| 20260903202253 | 61 | 106 | 0.0 | 0.9 | 0.00 | 0.00 | 0.00 | 94 | 973.9 |
| 20260903201843 | 61 | 106 | 0.0 | 0.9 | 0.00 | 0.00 | 0.00 | 94 | 973.7 |
| 20260903201356 | 61 | 106 | 0.0 | 0.9 | 0.00 | 0.00 | 0.00 | 94 | 973.8 |
| 20260903200916 | 61 | 106 | 0.0 | 0.9 | 0.00 | 0.00 | 0.00 | 94 | 973.3 |
| 20260903200508 | 61 | 106 | 0.0 | 0.9 | 0.00 | 0.00 | 0.00 | 94 | 973.5 |
| 20260903200043 | 62 | 106 | 0.0 | 0.0 | 0.00 | 0.00 | 0.00 | 94 | 973.5 |
| 20260903195553 | 62 | 106 | 0.0 | 0.0 | 0.00 | 0.00 | 0.00 | 94 | 973.3 |
| 20260903195116 | 62 | 106 | 0.0 | 0.0 | 0.00 | 0.00 | 0.00 | 94 | 973.3 |
| 20260903194658 | 62 | 106 | 0.0 | 0.0 | 0.00 | 0.00 | 0.00 | 94 | 973.3 |
| 20260903194233 | 62 | 106 | 0.0 | 0.0 | 0.00 | 0.00 | 0.00 | 94 | 973.5 |
| 20260903193748 | 62 | 106 | 0.0 | 0.0 | 0.00 | 0.00 | 0.00 | 94 | 973.3 |
| 20260903193256 | 62 | 106 | 0.0 | 0.0 | 0.00 | 0.00 | 0.00 | 94 | 973.4 |
| 20260903192843 | 62 | 106 | 0.0 | 0.0 | 0.00 | 0.00 | 0.00 | 94 | 973.5 |
| 20260903192422 | 62 | 106 | 0.0 | 0.0 | 0.00 | 0.00 | 0.00 | 93 | 973.6 |
| 20260903192013 | 62 | 106 | 0.0 | 0.0 | 0.00 | 0.00 | 0.00 | 94 | 973.6 |
| 20260903191533 | 62 | 106 | 0.0 | 0.0 | 0.00 | 0.00 | 0.00 | 94 | 973.6 |
| 20260903191058 | 62 | 106 | 0.0 | 0.0 | 0.00 | 0.00 | 0.00 | 90 | 973.6 |
| 20260903190628 | 62 | 106 | 0.0 | 0.9 | 0.00 | 0.00 | 0.00 | 90 | 973.4 |
| 20260903190213 | 62 | 106 | 0.0 | 0.9 | 0.00 | 0.00 | 0.00 | 90 | 973.6 |
| 20260903185758 | 62 | 106 | 0.0 | 0.9 | 0.00 | 0.00 | 0.00 | 90 | 973.6 |
| 20260903185336 | 62 | 106 | 0.0 | 0.0 | 0.00 | 0.00 | 0.00 | 90 | 973.6 |
| 20260903184913 | 61 | 106 | 0.0 | 0.0 | 0.00 | 0.00 | 0.00 | 90 | 973.6 |
| 20260903184443 | 61 | 106 | 0.0 | 0.0 | 0.00 | 0.00 | 0.00 | 90 | 973.5 |
| 20260903183953 | 62 | 106 | 0.0 | 0.0 | 0.00 | 0.00 | 0.00 | 90 | 973.6 |
| 20260903183456 | 62 | 106 | 0.0 | 0.0 | 0.00 | 0.00 | 0.00 | 90 | 973.5 |
| 20260903183018 | 62 | 106 | 0.0 | 0.0 | 0.00 | 0.00 | 0.00 | 90 | 973.6 |
| 20260903182533 | 62 | 106 | 0.0 | 0.0 | 0.00 | 0.00 | 0.00 | 90 | 973.6 |
| 20260903182059 | 62 | 106 | 0.0 | 0.0 | 0.00 | 0.00 | 0.00 | 90 | 973.6 |
| 20260903181623 | 62 | 106 | 0.0 | 0.0 | 0.00 | 0.00 | 0.00 | 90 | 973.6 |
| 20260903181156 | 62 | 106 | 0.0 | 0.0 | 0.00 | 0.00 | 0.00 | 90 | 973.3 |
| 20260903180743 | 62 | 106 | 0.0 | 0.0 | 0.00 | 0.00 | 0.00 | 90 | 973.5 |
| 20260903180308 | 62 | 106 | 0.9 | 0.9 | 0.00 | 0.00 | 0.00 | 90 | 973.5 |
| 20260903175856 | 62 | 106 | 0.0 | 0.0 | 0.00 | 0.00 | 0.00 | 90 | 973.2 |